When you browse on this site, cookies collect data to enhance your experience and personalize the content and advertising you see.
Visit our Privacy Policy to learn more. By continuing to use the site, you agree to this use of cookies and data.

Hourly Weather Barnsley

Today, 24 September, Thursday

Time Temperature Precipitation Wind Pressure Humidity
00:00 +8°C° 0.5 mm 4 mps 736 mmHg 80%
01:00 +8°C° 0 mm 3 mps 736 mmHg 81%
02:00 +8°C° 0 mm 2 mps 736 mmHg 81%
03:00 +8°C° 0 mm 2 mps 735 mmHg 82%
04:00 +8°C° 0 mm 2 mps 735 mmHg 82%
05:00 +8°C° 0 mm 2 mps 734 mmHg 82%
06:00 +8°C° 0 mm 2 mps 734 mmHg 83%
07:00 +8°C° 0.3 mm 3 mps 734 mmHg 81%
08:00 +9°C° 0.3 mm 3 mps 734 mmHg 79%
09:00 +10°C° 0.3 mm 4 mps 733 mmHg 77%
10:00 +10°C° 0.3 mm 5 mps 733 mmHg 70%
11:00 +12°C° 0.3 mm 5 mps 733 mmHg 64%
12:00 +11°C° 0.3 mm 6 mps 733 mmHg 57%
13:00 +11°C° 0.1 mm 6 mps 733 mmHg 57%
14:00 +12°C° 0.1 mm 5 mps 733 mmHg 57%
15:00 +12°C° 0.1 mm 5 mps 733 mmHg 56%
16:00 +11°C° 0.1 mm 4 mps 733 mmHg 61%
17:00 +10°C° 0.1 mm 2 mps 733 mmHg 65%
18:00 +10°C° 0.1 mm 1 mps 734 mmHg 69%
19:00 +10°C° 0.1 mm 1 mps 734 mmHg 71%
20:00 +10°C° 0.1 mm 1 mps 735 mmHg 72%
21:00 +8°C° 0.1 mm 2 mps 735 mmHg 74%
22:00 +8°C° 0 mm 2 mps 736 mmHg 78%
23:00 +8°C° 0 mm 3 mps 737 mmHg 82%

Tomorrow, 25 September, Friday

Time Temperature Precipitation Wind Pressure Humidity
00:00 +6°C° 0 mm 4 mps 737 mmHg 86%
01:00 +6°C° 0.1 mm 4 mps 738 mmHg 84%
02:00 +7°C° 0.1 mm 5 mps 738 mmHg 83%
03:00 +7°C° 0.1 mm 5 mps 739 mmHg 82%
04:00 +7°C° 0 mm 6 mps 740 mmHg 81%
05:00 +5°C° 0 mm 6 mps 741 mmHg 79%
06:00 +5°C° 0 mm 6 mps 742 mmHg 78%
07:00 +7°C° 0 mm 6 mps 742 mmHg 75%
08:00 +6°C° 0 mm 7 mps 743 mmHg 71%
09:00 +7°C° 0 mm 8 mps 744 mmHg 68%
10:00 +9°C° 0 mm 8 mps 745 mmHg 65%
11:00 +10°C° 0 mm 8 mps 745 mmHg 62%
12:00 +11°C° 0 mm 9 mps 746 mmHg 59%
13:00 +11°C° 0.1 mm 8 mps 747 mmHg 59%
14:00 +10°C° 0.1 mm 7 mps 747 mmHg 60%
15:00 +10°C° 0.1 mm 7 mps 748 mmHg 61%
16:00 +9°C° 0.1 mm 6 mps 748 mmHg 64%
17:00 +9°C° 0.1 mm 5 mps 749 mmHg 66%
18:00 +8°C° 0.1 mm 4 mps 749 mmHg 69%
19:00 +7°C° 0 mm 4 mps 750 mmHg 69%
20:00 +7°C° 0 mm 4 mps 750 mmHg 69%
21:00 +6°C° 0 mm 4 mps 750 mmHg 70%
22:00 +6°C° 0 mm 4 mps 750 mmHg 68%
23:00 +5°C° 0 mm 4 mps 750 mmHg 67%

Day after tomorrow, 26 September, Saturday

Time Temperature Precipitation Wind Pressure Humidity
00:00 +5°C° 0 mm 4 mps 750 mmHg 66%
01:00 +5°C° 0 mm 4 mps 750 mmHg 64%
02:00 +5°C° 0 mm 5 mps 749 mmHg 63%
03:00 +3°C° 0 mm 5 mps 749 mmHg 62%
04:00 +3°C° 0 mm 5 mps 749 mmHg 64%
05:00 +3°C° 0 mm 5 mps 749 mmHg 65%
06:00 +3°C° 0 mm 5 mps 749 mmHg 67%
07:00 +6°C° 0 mm 5 mps 749 mmHg 65%
08:00 +7°C° 0 mm 5 mps 749 mmHg 64%
09:00 +8°C° 0 mm 5 mps 749 mmHg 62%
10:00 +9°C° 0 mm 5 mps 749 mmHg 60%
11:00 +9°C° 0 mm 5 mps 749 mmHg 57%
12:00 +10°C° 0 mm 5 mps 749 mmHg 54%
13:00 +10°C° 0 mm 5 mps 749 mmHg 55%
14:00 +10°C° 0 mm 5 mps 749 mmHg 56%
15:00 +10°C° 0 mm 5 mps 749 mmHg 57%
16:00 +9°C° 0 mm 5 mps 749 mmHg 60%
17:00 +8°C° 0 mm 5 mps 750 mmHg 62%
18:00 +8°C° 0 mm 5 mps 750 mmHg 65%
19:00 +7°C° 0 mm 5 mps 750 mmHg 67%
20:00 +7°C° 0 mm 5 mps 750 mmHg 69%
21:00 +6°C° 0 mm 4 mps 751 mmHg 71%
22:00 +6°C° 0 mm 4 mps 751 mmHg 73%
23:00 +6°C° 0 mm 4 mps 751 mmHg 75%

27 September, Sunday

Time Temperature Precipitation Wind Pressure Humidity
00:00 +6°C° 0 mm 4 mps 751 mmHg 77%
01:00 +5°C° 0 mm 4 mps 751 mmHg 78%
02:00 +5°C° 0 mm 3 mps 751 mmHg 79%
03:00 +4°C° 0 mm 3 mps 751 mmHg 80%
04:00 +4°C° 0 mm 3 mps 751 mmHg 80%
05:00 +4°C° 0 mm 3 mps 751 mmHg 79%
06:00 +4°C° 0 mm 3 mps 751 mmHg 79%
07:00 +5°C° 0 mm 3 mps 751 mmHg 76%
08:00 +7°C° 0 mm 4 mps 751 mmHg 73%
09:00 +8°C° 0 mm 4 mps 751 mmHg 70%
10:00 +8°C° 0 mm 4 mps 751 mmHg 67%
11:00 +10°C° 0 mm 4 mps 751 mmHg 64%
12:00 +11°C° 0 mm 4 mps 751 mmHg 61%
13:00 +12°C° 0 mm 3 mps 751 mmHg 60%
14:00 +12°C° 0 mm 3 mps 750 mmHg 58%
15:00 +12°C° 0 mm 3 mps 750 mmHg 57%
16:00 +12°C° 0 mm 2 mps 750 mmHg 61%
17:00 +10°C° 0 mm 2 mps 750 mmHg 65%
18:00 +10°C° 0 mm 1 mps 750 mmHg 70%
19:00 +9°C° 0 mm 1 mps 750 mmHg 72%
20:00 +9°C° 0 mm 1 mps 750 mmHg 74%
21:00 +8°C° 0 mm 1 mps 751 mmHg 76%
22:00 +8°C° 0 mm 1 mps 750 mmHg 76%
23:00 +8°C° 0 mm 1 mps 750 mmHg 75%

28 September, Monday

Time Temperature Precipitation Wind Pressure Humidity
00:00 +7°C° 0 mm 1 mps 750 mmHg 74%
01:00 +7°C° 0 mm 1 mps 750 mmHg 72%
02:00 +7°C° 0 mm 1 mps 749 mmHg 69%
03:00 +7°C° 0 mm 1 mps 749 mmHg 67%
04:00 +7°C° 0 mm 1 mps 748 mmHg 65%
05:00 +6°C° 0 mm 0 mps 748 mmHg 62%
06:00 +6°C° 0 mm 0 mps 748 mmHg 60%
07:00 +8°C° 0 mm 1 mps 748 mmHg 57%
08:00 +10°C° 0 mm 1 mps 747 mmHg 55%
09:00 +12°C° 0 mm 1 mps 747 mmHg 52%
10:00 +13°C° 0 mm 1 mps 747 mmHg 55%
11:00 +14°C° 0 mm 2 mps 746 mmHg 58%
12:00 +15°C° 0 mm 2 mps 746 mmHg 61%
13:00 +15°C° 0.1 mm 2 mps 745 mmHg 68%
14:00 +13°C° 0.1 mm 3 mps 744 mmHg 75%
15:00 +13°C° 0.1 mm 3 mps 744 mmHg 83%
16:00 +14°C° 1 mm 2 mps 743 mmHg 86%
17:00 +13°C° 1 mm 2 mps 743 mmHg 89%
18:00 +13°C° 1 mm 2 mps 743 mmHg 92%
19:00 +12°C° 0.4 mm 3 mps 743 mmHg 91%
20:00 +12°C° 0.4 mm 3 mps 743 mmHg 91%
21:00 +12°C° 0.4 mm 4 mps 743 mmHg 90%
22:00 +10°C° 0.1 mm 5 mps 743 mmHg 89%
23:00 +10°C° 0.1 mm 5 mps 743 mmHg 88%

29 September, Tuesday

Time Temperature Precipitation Wind Pressure Humidity
00:00 +10°C° 0.1 mm 6 mps 743 mmHg 87%
01:00 +10°C° 0.2 mm 6 mps 743 mmHg 86%
02:00 +9°C° 0.2 mm 6 mps 743 mmHg 84%
03:00 +9°C° 0.2 mm 7 mps 743 mmHg 83%
04:00 +9°C° 0 mm 7 mps 743 mmHg 82%
05:00 +9°C° 0 mm 7 mps 743 mmHg 80%
06:00 +9°C° 0 mm 8 mps 743 mmHg 79%
07:00 +9°C° 0 mm 8 mps 743 mmHg 77%
08:00 +10°C° 0 mm 8 mps 743 mmHg 74%
09:00 +10°C° 0 mm 8 mps 743 mmHg 72%
10:00 +11°C° 0 mm 8 mps 744 mmHg 69%
11:00 +11°C° 0 mm 8 mps 744 mmHg 67%
12:00 +12°C° 0 mm 8 mps 744 mmHg 64%
13:00 +12°C° 0 mm 8 mps 744 mmHg 63%
14:00 +12°C° 0 mm 8 mps 744 mmHg 62%
15:00 +12°C° 0 mm 7 mps 744 mmHg 60%
16:00 +11°C° 0 mm 6 mps 744 mmHg 64%
17:00 +10°C° 0 mm 5 mps 745 mmHg 68%
18:00 +10°C° 0 mm 4 mps 745 mmHg 72%
19:00 +8°C° 0 mm 4 mps 745 mmHg 75%
20:00 +8°C° 0 mm 4 mps 745 mmHg 78%
21:00 +9°C° 0 mm 3 mps 745 mmHg 81%
22:00 +8°C° 0 mm 3 mps 745 mmHg 83%
23:00 +8°C° 0 mm 3 mps 745 mmHg 84%
Show more